Location: Bakov nad Jizerou
(50.4784°N, 14.9394°E)
Time: 07:12:00
(UTC+00:00)

GP-B - Pass Details

Date: 16 June 2021
Orbit: 631 x 635 km, 89.8° (Epoch: 28 July)

Event Time Altitude Azimuth Distance (km) Brightness Sun altitude
Rises 23:28:06 0° 358° (N) 2,947 8.3 -15.9°
Reaches altitude 10° 23:30:21 10° 356° (N) 2,033 7.0 -15.9°
Maximum altitude 23:34:46 63° 275° (W) 711 3.3 -15.8°
Enters shadow 23:37:04 27° 203° (SSW) 1,217 4.0 -15.7°
